Location: Knowlton
(51.2333°N, 1.2667°E)
Time: 22:06:24
(UTC+00:00)

NUDT-PHONESAT - Visible Passes

Search period start: 01 December 2021 00:00
Search period end: 11 December 2021 00:00
Orbit: 474 x 487 km, 97.4° (Epoch: 01 December)

Date Brightness Start Highest point End Pass type
(mag) Time Alt. Az. Time Alt. Az. Time Alt. Az.
01 Dec ? 06:20:34 10° NNE 06:23:51 31° E 06:27:04 10° SSE visible
01 Dec ? 17:00:56 10° SE 17:04:03 28° ENE 17:07:12 10° N visible
01 Dec ? 18:34:19 10° SSW 18:37:24 26° W 18:40:32 10° NW visible
02 Dec ? 05:55:39 10° NE 05:58:07 17° E 06:00:35 10° SE visible
02 Dec ? 16:36:23 10° ESE 16:38:44 17° ENE 16:41:06 10° NNE visible
02 Dec ? 18:08:15 10° S 18:11:46 50° W 18:15:18 10° NNW visible
03 Dec ? 17:42:36 10° SSE 17:46:11 81° ENE 17:49:50 10° NNW visible
04 Dec ? 06:37:08 10° NNE 06:40:40 47° E 06:44:08 10° S visible
04 Dec ? 17:17:17 10° SE 17:20:42 41° ENE 17:24:08 10° N visible
04 Dec ? 18:51:41 10° SW 18:54:15 18° W 18:56:50 10° NW visible
05 Dec ? 06:11:54 10° NE 06:14:58 25° E 06:17:59 10° SSE visible
05 Dec ? 16:52:22 10° ESE 16:55:16 23° ENE 16:58:12 10° N visible
05 Dec ? 18:25:13 10° SSW 18:28:30 33° W 18:31:49 10° NNW visible
06 Dec ? 05:47:12 10° ENE 05:49:10 14° E 05:51:07 10° ESE visible
06 Dec ? 16:28:01 10° E 16:29:55 14° ENE 16:31:51 10° NNE visible
06 Dec ? 17:59:15 10° S 18:02:50 65° WSW 18:06:27 10° NNW visible
07 Dec ? 06:53:41 10° NNE 06:57:18 75° ESE 07:00:53 10° S visible
07 Dec ? 17:33:40 10° SSE 17:37:14 64° ENE 17:40:50 10° N visible
07 Dec ? 19:09:25 10° WSW 19:11:01 12° W 19:12:37 10° WNW visible
08 Dec ? 06:28:14 10° NNE 06:31:38 37° E 06:34:59 10° SSE visible
08 Dec ? 17:08:27 10° SE 17:11:43 33° ENE 17:15:01 10° N visible
08 Dec ? 18:42:16 10° SSW 18:45:09 22° W 18:48:04 10° NW visible
09 Dec ? 06:03:06 10° NE 06:05:51 20° E 06:08:34 10° SE visible
09 Dec ? 16:43:39 10° ESE 16:46:17 19° ENE 16:48:55 10° NNE visible
09 Dec ? 18:15:58 10° S 18:19:23 41° W 18:22:51 10° NNW visible
10 Dec ? 05:38:50 10° ENE 05:39:57 11° E 05:41:03 10° ESE visible
10 Dec ? 17:50:05 10° SSE 17:53:42 83° WSW 17:57:20 10° NNW visible
